Wheeling, WV

3:46 AM EST on December 08, 2019 (GMT -0500)
Wheeling-Ohio County

Weather History for KHLG - October, 2019

Change the Weather History Date:

Wednesday, October 30, 2019

  Actual Average Record
Temperature  
Mean Temperature 55 °F 49 °F  
Max Temperature 63 °F 58 °F 78 °F (1942)
Min Temperature 46 °F 40 °F 22 °F (1939)
Degree Days  
Heating Degree Days 10 16  
Month to date heating degree days 258 356  
Since 1 July heating degree days 259 457  
Cooling Degree Days 0 0  
Month to date cooling degree days 40 10  
Year to date cooling degree days 986 688  
Growing Degree Days 4 (Base 50)    
Moisture  
Dew Point 52 °F    
Average Humidity 84    
Maximum Humidity 97    
Minimum Humidity 70    
Precipitation  
Precipitation 0.87 in 0.07 in 0.87 in (2019)
Month to date precipitation 4.71 2.48  
Year to date precipitation 32.69 32.25  
Sea Level Pressure  
Sea Level Pressure 30.06 in    
Wind  
Wind Speed 6 mph (East)    
Max Wind Speed 10 mph    
Max Gust Speed 15 mph    
Visibility 6 miles    
Events Rain    
T = Trace of Precipitation, MM = Missing Value Source: NWS Daily Summary

Daily Weather History Graph

Daily Weather History Graph

Search for Another Location

Airport or City:

Astronomy

Oct. 30, 2019 Rise Set
Actual Time 7:49 AM EDT 6:22 PM EDT
Civil Twilight 7:21 AM EDT 6:50 PM EDT
Nautical Twilight 6:49 AM EDT 7:22 PM EDT
Astronomical Twilight 6:17 AM EDT 7:54 PM EDT
Moon 10:31 AM EDT (10/30) 8:29 PM EDT (10/30)
Length of Visible Light 11h 29m
Length of Day
10h 33m
Waxing Crescent, 8% of the Moon is Illuminated
Oct 30
Waxing Crescent
Nov 4
First Quarter
Nov 12
Full
Nov 19
Last Quarter
Nov 26
New

Hourly Weather History & Observations

Time (EDT) Temp. Dew Point Humidity Pressure Visibility Wind Dir Wind Speed Gust Speed Precip Events Conditions
12:53 AM 51.1 °F 46.9 °F 86% 30.24 in 10.0 mi ESE 4.6 mph - N/A   Clear
1:53 AM 50.0 °F 46.9 °F 89% 30.22 in 10.0 mi ESE 8.1 mph - N/A   Clear
2:53 AM 51.1 °F 46.9 °F 86% 30.21 in 10.0 mi East 5.8 mph - N/A   Clear
3:53 AM 50.0 °F 46.9 °F 89% 30.20 in 8.0 mi NNW 3.5 mph - N/A   Clear
4:53 AM 46.9 °F 45.0 °F 93% 30.21 in 4.0 mi NNW 4.6 mph - N/A   Clear
5:53 AM 46.0 °F 45.0 °F 96% 30.21 in 2.5 mi Calm Calm - N/A   Clear
6:03 AM 48.0 °F 46.0 °F 93% 30.19 in 4.0 mi Calm Calm - N/A   Clear
6:53 AM 48.9 °F 46.0 °F 90% 30.21 in 5.0 mi North 3.5 mph - N/A   Clear
7:53 AM 48.0 °F 46.0 °F 93% 30.20 in 6.0 mi NE 4.6 mph - N/A   Clear
8:37 AM 46.9 °F 46.0 °F 97% 30.21 in 1.8 mi Calm Calm - N/A   Mostly Cloudy
8:53 AM 50.0 °F 46.9 °F 89% 30.22 in 3.0 mi NNE 5.8 mph - N/A   Mostly Cloudy
9:53 AM 52.0 °F 48.0 °F 86% 30.21 in 7.0 mi NE 5.8 mph - N/A   Clear
10:53 AM 54.0 °F 48.9 °F 83% 30.19 in 8.0 mi ENE 9.2 mph - N/A   Clear
11:53 AM 57.9 °F 50.0 °F 75% 30.18 in 10.0 mi NE 5.8 mph - N/A   Clear
12:53 PM 61.0 °F 51.1 °F 70% 30.14 in 10.0 mi East 10.4 mph - N/A   Clear
1:53 PM 63.0 °F 53.1 °F 70% 30.09 in 10.0 mi ESE 10.4 mph - N/A   Clear
2:53 PM 62.1 °F 53.1 °F 72% 30.05 in 10.0 mi East 6.9 mph - N/A   Clear
3:53 PM 61.0 °F 53.1 °F 75% 30.06 in 10.0 mi SE 5.8 mph - 0.00 in Rain Light Rain
4:53 PM 59.0 °F 54.0 °F 83% 30.04 in 10.0 mi ESE 6.9 mph - 0.01 in Rain Light Rain
5:53 PM 57.9 °F 55.0 °F 90% 30.02 in 5.0 mi East 5.8 mph - 0.03 in Rain Light Rain
6:53 PM 57.9 °F 55.0 °F 90% 29.99 in 8.0 mi East 6.9 mph - 0.04 in Rain Light Rain
7:22 PM 57.9 °F 55.0 °F 90% 29.98 in 6.0 mi East 4.6 mph - 0.01 in Rain Light Rain
7:53 PM 57.9 °F 55.9 °F 93% 29.98 in 3.0 mi East 4.6 mph - 0.06 in Rain Rain
8:27 PM 57.9 °F 55.9 °F 93% 29.96 in 2.0 mi East 6.9 mph - 0.13 in Rain Rain
8:53 PM 57.9 °F 55.9 °F 93% 29.95 in 1.8 mi East 9.2 mph - 0.34 in Rain Heavy Rain
9:05 PM 59.0 °F 57.0 °F 93% 29.93 in 2.0 mi East 6.9 mph - 0.07 in Rain Heavy Rain
9:33 PM 57.9 °F 57.0 °F 97% 29.93 in 2.5 mi East 5.8 mph - 0.19 in Rain Rain
9:38 PM 57.9 °F 57.0 °F 97% 29.93 in 4.0 mi East 8.1 mph - 0.20 in Rain Light Rain
9:53 PM 59.0 °F 57.0 °F 93% 29.94 in 3.0 mi East 5.8 mph - 0.22 in Rain Rain
10:00 PM 59.0 °F 57.0 °F 93% 29.93 in 2.5 mi East 5.8 mph - 0.02 in Rain Rain
10:02 PM 59.0 °F 57.0 °F 93% 29.93 in 3.0 mi East 5.8 mph - 0.02 in Rain Rain
10:09 PM 59.0 °F 57.0 °F 93% 29.92 in 5.0 mi East 5.8 mph - 0.02 in Rain Light Rain
10:40 PM 59.0 °F 57.0 °F 93% 29.91 in 3.0 mi East 5.8 mph - 0.05 in Rain Light Rain
10:45 PM 59.0 °F 57.0 °F 93% 29.91 in 2.5 mi East 5.8 mph - 0.06 in Rain Light Rain
10:53 PM 59.0 °F 57.0 °F 93% 29.91 in 2.5 mi East 3.5 mph - 0.06 in Rain Light Rain
11:00 PM 59.0 °F 57.9 °F 96% 29.90 in 4.0 mi East 4.6 mph - 0.01 in Rain Light Rain
11:53 PM 60.1 °F 57.9 °F 93% 29.88 in 5.0 mi SSE 3.5 mph - 0.03 in Rain Light Rain